Regional Weather Roundup
Issued by NWS Albany, NY

Home | Current Version | Previous Version | Text Only | Print | Product List | Glossary On
Versions: 1 2 3 4 5 6 7 8 9 10 11 12 13 14 15 16 17 18 19 20 21 22 23 24 25 26 27 28 29 30 31 32 33 34 35 36 37 38 39 40 41 42 43 44 45 46 47 48 49 50
000
ASUS41 KALY 060910
RWRALY

NEW YORK STATE HOURLY WEATHER ROUNDUP
NATIONAL WEATHER SERVICE ALBANY NY
400 AM EST FRI MAR 06 2015

NOTE: "FAIR" INDICATES FEW OR NO CLOUDS BELOW 12,000 FEET WITH NO
SIGNIFICANT WEATHER AND/OR NO OBSTRUCTIONS TO VISIBILITY.

NYZ032-033-038>043-046>054-057>066-NYZ062>081-061000-
EAST


CITY           SKY/WX    TMP DP  RH WIND       PRES   REMARKS
ALBANY         CLEAR      5  -5  63 NW3       30.47R
GLENS FALLS    CLEAR    -13 -20  71 CALM      30.45R
POUGHKEEPSIE   CLEAR      3  -3  76 CALM      30.46R
NEWBURGH       CLEAR      3  -2  78 CALM      30.43R
MONTGOMERY     CLEAR      4  -3  73 NW3       30.42R
WHITE PLAINS   CLEAR      8  -2  63 NW7       30.40R WCI  -3
ISLIP          CLEAR     14   1  56 N14       30.41R WCI  -1
NEW YORK CITY  CLEAR     16   3  56 N10       30.45R WCI   4
CENTRAL PARK   CLEAR     14   1  56 VRB6      30.46R WCI   5
$$

NYZ005>009-017-018-044>046-055-056-061000-
CENTRAL


CITY           SKY/WX    TMP DP  RH WIND       PRES   REMARKS
FULTON         CLOUDY     5  -3  69 CALM      30.47R
SYRACUSE       PTCLDY    -1  -2  95 W8        30.48R WCI -15
ROME           MOCLDY    -4  -5  95 NW6       30.48R WCI -16
ELMIRA         PTCLDY     0  -5  79 W10       30.45S WCI -16
BINGHAMTON     PTCLDY     0  -4  83 W3        30.33S
MONTICELLO     CLEAR      3   1  92 CALM      30.34S
$$

NYZ026>034-041>043-061000-
NORTH


CITY           SKY/WX    TMP DP  RH WIND       PRES   REMARKS
WATERTOWN      PTCLDY    -2  -9  72 S6        30.47R WCI -14
FORT DRUM      NOT AVBL
MASSENA        MOCLDY   -18 -24  74 CALM      30.45R
SARANAC LAKE   PTCLDY   -26 -33  69 CALM      30.26S
PLATTSBURGH    CLEAR     -6 -12  75 CALM      30.42S
$$

NYZ001>004-010>016-019>021-061000-
WEST


CITY           SKY/WX    TMP DP  RH WIND       PRES   REMARKS
NIAGARA FALLS  PTCLDY     2  -3  80 SW6       30.48F WCI  -9
BUFFALO        PTCLDY     1  -3  83 S7        30.47F WCI -12
DUNKIRK        PTCLDY    -5  -9  83 S3        30.49F
JAMESTOWN      PTCLDY     0  -2  92 CALM      30.36F
WELLSVILLE     PTCLDY    -2  -7  79 NW6       30.33S WCI -14
ROCHESTER      PTCLDY     1  -5  75 SW8       30.48S WCI -13
PENN YAN       CLEAR      2  -5  72 SW8       30.44R WCI -12
$$

             KEY
       WCI = WIND CHILL INDEX
       VSB = VISIBILITY
       HX  = HEAT INDEX
$$


USA.gov is the U.S. government's official web portal to all federal, state and local government web resources and services.